Year,Month,Day,Hour,Minute,Value (Times are PST for temperature in C)
2009,01,19,00,00,5.50
2009,01,19,00,01,5.40
2009,01,19,00,02,5.40
2009,01,19,00,03,5.30
2009,01,19,00,04,5.30
2009,01,19,00,05,5.30
2009,01,19,00,06,5.20
2009,01,19,00,07,5.10
2009,01,19,00,08,5.10
2009,01,19,00,09,5.10
2009,01,19,00,10,5.00
2009,01,19,00,11,4.90
2009,01,19,00,12,4.80
2009,01,19,00,13,4.80
2009,01,19,00,14,4.70
2009,01,19,00,15,4.60
2009,01,19,00,16,4.60
2009,01,19,00,17,4.50
2009,01,19,00,18,4.50
2009,01,19,00,19,4.40
2009,01,19,00,20,4.30
2009,01,19,00,21,4.30
2009,01,19,00,22,4.30
2009,01,19,00,23,4.30
2009,01,19,00,24,4.20
2009,01,19,00,25,4.20
2009,01,19,00,26,4.20
2009,01,19,00,27,4.20
2009,01,19,00,28,4.20
2009,01,19,00,29,4.20
2009,01,19,00,30,4.20
2009,01,19,00,31,4.20
2009,01,19,00,32,4.30
2009,01,19,00,33,4.30
2009,01,19,00,34,4.30
2009,01,19,00,35,4.30
2009,01,19,00,36,4.30
2009,01,19,00,37,4.30
2009,01,19,00,38,4.30
2009,01,19,00,39,4.30
2009,01,19,00,40,4.30
2009,01,19,00,41,4.30
2009,01,19,00,42,4.30
2009,01,19,00,43,4.30
2009,01,19,00,44,4.40
2009,01,19,00,45,4.40
2009,01,19,00,46,4.50
2009,01,19,00,47,4.60
2009,01,19,00,48,4.70
2009,01,19,00,49,4.80
2009,01,19,00,50,4.90
2009,01,19,00,51,5.00
2009,01,19,00,52,5.10
2009,01,19,00,53,5.20
2009,01,19,00,54,5.40
2009,01,19,00,55,5.50
2009,01,19,00,56,5.70
2009,01,19,00,57,5.80
2009,01,19,00,58,5.90
2009,01,19,00,59,5.90
2009,01,19,01,00,5.90
2009,01,19,01,01,5.90
2009,01,19,01,02,5.90
2009,01,19,01,03,5.80
2009,01,19,01,04,5.80
2009,01,19,01,05,5.70
2009,01,19,01,06,5.70
2009,01,19,01,07,5.50
2009,01,19,01,08,5.50
2009,01,19,01,09,5.30
2009,01,19,01,10,5.30
2009,01,19,01,11,5.20
2009,01,19,01,12,5.20
2009,01,19,01,13,5.20
2009,01,19,01,14,5.20
2009,01,19,01,15,5.20
2009,01,19,01,16,5.30
2009,01,19,01,17,5.40
2009,01,19,01,18,5.50
2009,01,19,01,19,5.50
2009,01,19,01,20,5.60
2009,01,19,01,21,5.60
2009,01,19,01,22,5.60
2009,01,19,01,23,5.60
2009,01,19,01,24,5.60
2009,01,19,01,25,5.60
2009,01,19,01,26,5.60
2009,01,19,01,27,5.60
2009,01,19,01,28,5.60
2009,01,19,01,29,5.60
2009,01,19,01,30,5.50
2009,01,19,01,31,5.50
2009,01,19,01,32,5.40
2009,01,19,01,33,5.40
2009,01,19,01,34,5.40
2009,01,19,01,35,5.40
2009,01,19,01,36,5.30
2009,01,19,01,37,5.30
2009,01,19,01,38,5.30
2009,01,19,01,39,5.20
2009,01,19,01,40,5.20
2009,01,19,01,41,5.10
2009,01,19,01,42,5.10
2009,01,19,01,43,5.00
2009,01,19,01,44,4.90
2009,01,19,01,45,4.90
2009,01,19,01,46,4.90
2009,01,19,01,47,4.80
2009,01,19,01,48,4.80
2009,01,19,01,49,4.90
2009,01,19,01,50,4.80
2009,01,19,01,51,4.80
2009,01,19,01,52,4.80
2009,01,19,01,53,4.80
2009,01,19,01,54,4.80
2009,01,19,01,55,4.80
2009,01,19,01,56,4.70
2009,01,19,01,57,4.70
2009,01,19,01,58,4.70
2009,01,19,01,59,4.70
2009,01,19,02,00,4.60
2009,01,19,02,01,4.60
2009,01,19,02,02,4.60
2009,01,19,02,03,4.50
2009,01,19,02,04,4.50
2009,01,19,02,05,4.50
2009,01,19,02,06,4.50
2009,01,19,02,07,4.50
2009,01,19,02,08,4.50
2009,01,19,02,09,4.60
2009,01,19,02,10,4.60
2009,01,19,02,11,4.60
2009,01,19,02,12,4.60
2009,01,19,02,13,4.70
2009,01,19,02,14,4.70
2009,01,19,02,15,4.70
2009,01,19,02,16,4.70
2009,01,19,02,17,4.80
2009,01,19,02,18,4.80
2009,01,19,02,19,4.80
2009,01,19,02,20,4.80
2009,01,19,02,21,4.80
2009,01,19,02,22,4.80
2009,01,19,02,23,4.80
2009,01,19,02,24,4.70
2009,01,19,02,25,4.70
2009,01,19,02,26,4.70
2009,01,19,02,27,4.70
2009,01,19,02,28,4.70
2009,01,19,02,29,4.70
2009,01,19,02,30,4.80
2009,01,19,02,31,4.80
2009,01,19,02,32,4.80
2009,01,19,02,33,4.80
2009,01,19,02,34,4.80
2009,01,19,02,35,4.80
2009,01,19,02,36,4.80
2009,01,19,02,37,4.80
2009,01,19,02,38,4.70
2009,01,19,02,39,4.70
2009,01,19,02,40,4.70
2009,01,19,02,41,4.70
2009,01,19,02,42,4.60
2009,01,19,02,43,4.60
2009,01,19,02,44,4.60
2009,01,19,02,45,4.60
2009,01,19,02,46,4.60
2009,01,19,02,47,4.60
2009,01,19,02,48,4.60
2009,01,19,02,49,4.70
2009,01,19,02,50,4.80
2009,01,19,02,51,5.00
2009,01,19,02,52,5.00
2009,01,19,02,53,5.10
2009,01,19,02,54,5.10
2009,01,19,02,55,5.10
2009,01,19,02,56,5.10
2009,01,19,02,57,5.10
2009,01,19,02,58,5.00
2009,01,19,02,59,4.90
2009,01,19,03,00,4.90
2009,01,19,03,01,4.80
2009,01,19,03,02,4.80
2009,01,19,03,03,4.80
2009,01,19,03,04,4.70
2009,01,19,03,05,4.70
2009,01,19,03,06,4.60
2009,01,19,03,07,4.60
2009,01,19,03,08,4.60
2009,01,19,03,09,4.60
2009,01,19,03,10,4.50
2009,01,19,03,11,4.50
2009,01,19,03,12,4.40
2009,01,19,03,13,4.40
2009,01,19,03,14,4.40
2009,01,19,03,15,4.40
2009,01,19,03,16,4.40
2009,01,19,03,17,4.40
2009,01,19,03,18,4.40
2009,01,19,03,19,4.40
2009,01,19,03,20,4.50
2009,01,19,03,21,4.50
2009,01,19,03,22,4.50
2009,01,19,03,23,4.50
2009,01,19,03,24,4.50
2009,01,19,03,25,4.40
2009,01,19,03,26,4.50
2009,01,19,03,27,4.40
2009,01,19,03,28,4.40
2009,01,19,03,29,4.40
2009,01,19,03,30,4.40
2009,01,19,03,31,4.40
2009,01,19,03,32,4.40
2009,01,19,03,33,4.40
2009,01,19,03,34,4.40
2009,01,19,03,35,4.40
2009,01,19,03,36,4.30
2009,01,19,03,37,4.30
2009,01,19,03,38,4.30
2009,01,19,03,39,4.30
2009,01,19,03,40,4.20
2009,01,19,03,41,4.20
2009,01,19,03,42,4.20
2009,01,19,03,43,4.10
2009,01,19,03,44,4.10
2009,01,19,03,45,4.10
2009,01,19,03,46,4.10
2009,01,19,03,47,4.00
2009,01,19,03,48,4.00
2009,01,19,03,49,3.90
2009,01,19,03,50,3.90
2009,01,19,03,51,3.90
2009,01,19,03,52,3.90
2009,01,19,03,53,3.90
2009,01,19,03,54,3.90
2009,01,19,03,55,3.90
2009,01,19,03,56,3.90
2009,01,19,03,57,3.90
2009,01,19,03,58,3.90
2009,01,19,03,59,3.90
2009,01,19,04,00,3.90
2009,01,19,04,01,3.80
2009,01,19,04,02,3.80
2009,01,19,04,03,3.80
2009,01,19,04,04,3.80
2009,01,19,04,05,3.80
2009,01,19,04,06,3.80
2009,01,19,04,07,3.80
2009,01,19,04,08,3.80
2009,01,19,04,09,3.80
2009,01,19,04,10,3.80
2009,01,19,04,11,3.80
2009,01,19,04,12,3.80
2009,01,19,04,13,3.70
2009,01,19,04,14,3.70
2009,01,19,04,15,3.70
2009,01,19,04,16,3.70
2009,01,19,04,17,3.70
2009,01,19,04,18,3.70
2009,01,19,04,19,3.70
2009,01,19,04,20,3.70
2009,01,19,04,21,3.70
2009,01,19,04,22,3.70
2009,01,19,04,23,3.70
2009,01,19,04,24,3.70
2009,01,19,04,25,3.70
2009,01,19,04,26,3.70
2009,01,19,04,27,3.80
2009,01,19,04,28,3.80
2009,01,19,04,29,3.80
2009,01,19,04,30,3.80
2009,01,19,04,31,3.80
2009,01,19,04,32,3.90
2009,01,19,04,33,3.90
2009,01,19,04,34,3.90
2009,01,19,04,35,3.90
2009,01,19,04,36,3.90
2009,01,19,04,37,4.00
2009,01,19,04,38,4.00
2009,01,19,04,39,4.10
2009,01,19,04,40,4.10
2009,01,19,04,41,4.10
2009,01,19,04,42,4.20
2009,01,19,04,43,4.20
2009,01,19,04,44,4.20
2009,01,19,04,45,4.30
2009,01,19,04,46,4.30
2009,01,19,04,47,4.30
2009,01,19,04,48,4.30
2009,01,19,04,49,4.30
2009,01,19,04,50,4.30
2009,01,19,04,51,4.30
2009,01,19,04,52,4.30
2009,01,19,04,53,4.30
2009,01,19,04,54,4.30
2009,01,19,04,55,4.30
2009,01,19,04,56,4.30
2009,01,19,04,57,4.30
2009,01,19,04,58,4.40
2009,01,19,04,59,4.40
2009,01,19,05,00,4.40
2009,01,19,05,01,4.40
2009,01,19,05,02,4.40
2009,01,19,05,03,4.40
2009,01,19,05,04,4.40
2009,01,19,05,05,4.40
2009,01,19,05,06,4.40
2009,01,19,05,07,4.40
2009,01,19,05,08,4.40
2009,01,19,05,09,4.50
2009,01,19,05,10,4.50
2009,01,19,05,11,4.60
2009,01,19,05,12,4.70
2009,01,19,05,13,4.80
2009,01,19,05,14,4.80
2009,01,19,05,15,4.90
2009,01,19,05,16,4.90
2009,01,19,05,17,4.90
2009,01,19,05,18,4.90
2009,01,19,05,19,4.90
2009,01,19,05,20,4.90
2009,01,19,05,21,4.80
2009,01,19,05,22,4.80
2009,01,19,05,23,4.80
2009,01,19,05,24,4.70
2009,01,19,05,25,4.70
2009,01,19,05,26,4.60
2009,01,19,05,27,4.50
2009,01,19,05,28,4.50
2009,01,19,05,29,4.40
2009,01,19,05,30,4.40
2009,01,19,05,31,4.30
2009,01,19,05,32,4.30
2009,01,19,05,33,4.20
2009,01,19,05,34,4.20
2009,01,19,05,35,4.20
2009,01,19,05,36,4.10
2009,01,19,05,37,4.10
2009,01,19,05,38,4.00
2009,01,19,05,39,4.00
2009,01,19,05,40,4.00
2009,01,19,05,41,3.90
2009,01,19,05,42,3.90
2009,01,19,05,43,3.90
2009,01,19,05,44,3.90
2009,01,19,05,45,3.80
2009,01,19,05,46,3.80
2009,01,19,05,47,3.80
2009,01,19,05,48,3.80
2009,01,19,05,49,3.70
2009,01,19,05,50,3.70
2009,01,19,05,51,3.70
2009,01,19,05,52,3.70
2009,01,19,05,53,3.60
2009,01,19,05,54,3.60
2009,01,19,05,55,3.60
2009,01,19,05,56,3.60
2009,01,19,05,57,3.50
2009,01,19,05,58,3.50
2009,01,19,05,59,3.50
2009,01,19,06,00,3.40
2009,01,19,06,01,3.40
2009,01,19,06,02,3.40
2009,01,19,06,03,3.30
2009,01,19,06,04,3.30
2009,01,19,06,05,3.30
2009,01,19,06,06,3.20
2009,01,19,06,07,3.20
2009,01,19,06,08,3.20
2009,01,19,06,09,3.20
2009,01,19,06,10,3.10
2009,01,19,06,11,3.10
2009,01,19,06,12,3.10
2009,01,19,06,13,3.10
2009,01,19,06,14,3.10
2009,01,19,06,15,3.00
2009,01,19,06,16,3.00
2009,01,19,06,17,2.90
2009,01,19,06,18,2.90
2009,01,19,06,19,2.90
2009,01,19,06,20,2.80
2009,01,19,06,21,2.80
2009,01,19,06,22,2.80
2009,01,19,06,23,2.80
2009,01,19,06,24,2.70
2009,01,19,06,25,2.70
2009,01,19,06,26,2.70
2009,01,19,06,27,2.70
2009,01,19,06,28,2.70
2009,01,19,06,29,2.70
2009,01,19,06,30,2.60
2009,01,19,06,31,2.60
2009,01,19,06,32,2.60
2009,01,19,06,33,2.60
2009,01,19,06,34,2.60
2009,01,19,06,35,2.50
2009,01,19,06,36,2.50
2009,01,19,06,37,2.50
2009,01,19,06,38,2.40
2009,01,19,06,39,2.40
2009,01,19,06,40,2.40
2009,01,19,06,41,2.30
2009,01,19,06,42,2.30
2009,01,19,06,43,2.30
2009,01,19,06,44,2.20
2009,01,19,06,45,2.20
2009,01,19,06,46,2.20
2009,01,19,06,47,2.10
2009,01,19,06,48,2.10
2009,01,19,06,49,2.10
2009,01,19,06,50,2.10
2009,01,19,06,51,2.10
2009,01,19,06,52,2.20
2009,01,19,06,53,2.20
2009,01,19,06,54,2.20
2009,01,19,06,55,2.20
2009,01,19,06,56,2.30
2009,01,19,06,57,2.40
2009,01,19,06,58,2.50
2009,01,19,06,59,2.70
2009,01,19,07,00,2.90
2009,01,19,07,01,3.10
2009,01,19,07,02,3.30
2009,01,19,07,03,3.50
2009,01,19,07,04,3.70
2009,01,19,07,05,3.80
2009,01,19,07,06,3.90
2009,01,19,07,07,4.00
2009,01,19,07,08,4.00
2009,01,19,07,09,4.10
2009,01,19,07,10,4.10
2009,01,19,07,11,4.20
2009,01,19,07,12,4.20
2009,01,19,07,13,4.20
2009,01,19,07,14,4.20
2009,01,19,07,15,4.20
2009,01,19,07,16,4.20
2009,01,19,07,17,4.20
2009,01,19,07,18,4.30
2009,01,19,07,19,4.50
2009,01,19,07,20,4.60
2009,01,19,07,21,4.70
2009,01,19,07,22,4.80
2009,01,19,07,23,4.90
2009,01,19,07,24,4.90
2009,01,19,07,25,4.90
2009,01,19,07,26,4.90
2009,01,19,07,27,4.90
2009,01,19,07,28,4.90
2009,01,19,07,29,4.90
2009,01,19,07,30,4.90
2009,01,19,07,31,4.90
2009,01,19,07,32,4.80
2009,01,19,07,33,4.80
2009,01,19,07,34,4.80
2009,01,19,07,35,4.80
2009,01,19,07,36,4.90
2009,01,19,07,37,4.90
2009,01,19,07,38,4.90
2009,01,19,07,39,4.80
2009,01,19,07,40,4.80
2009,01,19,07,41,4.70
2009,01,19,07,42,4.60
2009,01,19,07,43,4.50
2009,01,19,07,44,4.50
2009,01,19,07,45,4.40
2009,01,19,07,46,4.30
2009,01,19,07,47,4.30
2009,01,19,07,48,4.30
2009,01,19,07,49,4.20
2009,01,19,07,50,4.20
2009,01,19,07,51,4.20
2009,01,19,07,52,4.30
2009,01,19,07,53,4.20
2009,01,19,07,54,4.20
2009,01,19,07,55,4.20
2009,01,19,07,56,4.20
2009,01,19,07,57,4.20
2009,01,19,07,58,4.20
2009,01,19,07,59,4.20
2009,01,19,08,00,4.30
2009,01,19,08,01,4.40
2009,01,19,08,02,4.40
2009,01,19,08,03,4.50
2009,01,19,08,04,4.50
2009,01,19,08,05,4.40
2009,01,19,08,06,4.40
2009,01,19,08,07,4.40
2009,01,19,08,08,4.30
2009,01,19,08,09,4.30
2009,01,19,08,10,4.20
2009,01,19,08,11,4.20
2009,01,19,08,12,4.10
2009,01,19,08,13,4.00
2009,01,19,08,14,3.90
2009,01,19,08,15,3.90
2009,01,19,08,16,3.80
2009,01,19,08,17,3.80
2009,01,19,08,18,3.70
2009,01,19,08,19,3.70
2009,01,19,08,20,3.60
2009,01,19,08,21,3.60
2009,01,19,08,22,3.50
2009,01,19,08,23,3.50
2009,01,19,08,24,3.40
2009,01,19,08,25,3.40
2009,01,19,08,26,3.40
2009,01,19,08,27,3.30
2009,01,19,08,28,3.30
2009,01,19,08,29,3.20
2009,01,19,08,30,3.20
2009,01,19,08,31,3.10
2009,01,19,08,32,3.10
2009,01,19,08,33,3.00
2009,01,19,08,34,3.00
2009,01,19,08,35,2.90
2009,01,19,08,36,2.90
2009,01,19,08,37,2.80
2009,01,19,08,38,2.80
2009,01,19,08,39,2.80
2009,01,19,08,40,2.70
2009,01,19,08,41,2.70
2009,01,19,08,42,2.60
2009,01,19,08,43,2.60
2009,01,19,08,44,2.60
2009,01,19,08,45,2.50
2009,01,19,08,46,2.40
2009,01,19,08,47,2.40
2009,01,19,08,48,2.30
2009,01,19,08,49,2.30
2009,01,19,08,50,2.30
2009,01,19,08,51,2.30
2009,01,19,08,52,2.20
2009,01,19,08,53,2.20
2009,01,19,08,54,2.20
2009,01,19,08,55,2.20
2009,01,19,08,56,2.20
2009,01,19,08,57,2.20
2009,01,19,08,58,2.20
2009,01,19,08,59,2.20
2009,01,19,09,00,2.20
2009,01,19,09,01,2.20
2009,01,19,09,02,2.20
2009,01,19,09,03,2.20
2009,01,19,09,04,2.20
2009,01,19,09,05,2.20
2009,01,19,09,06,2.20
2009,01,19,09,07,2.30
2009,01,19,09,08,2.30
2009,01,19,09,09,2.30
2009,01,19,09,10,2.30
2009,01,19,09,11,2.40
2009,01,19,09,12,2.40
2009,01,19,09,13,2.40
2009,01,19,09,14,2.40
2009,01,19,09,15,2.40
2009,01,19,09,16,2.50
2009,01,19,09,17,2.50
2009,01,19,09,18,2.50
2009,01,19,09,19,2.60
2009,01,19,09,20,2.60
2009,01,19,09,21,2.70
2009,01,19,09,22,2.80
2009,01,19,09,23,2.90
2009,01,19,09,24,2.90
2009,01,19,09,25,3.00
2009,01,19,09,26,3.00
2009,01,19,09,27,3.10
2009,01,19,09,28,3.10
2009,01,19,09,29,3.20
2009,01,19,09,30,3.20
2009,01,19,09,31,3.30
2009,01,19,09,32,3.30
2009,01,19,09,33,3.40
2009,01,19,09,34,3.40
2009,01,19,09,35,3.50
2009,01,19,09,36,3.60
2009,01,19,09,37,3.60
2009,01,19,09,38,3.70
2009,01,19,09,39,3.70
2009,01,19,09,40,3.80
2009,01,19,09,41,3.80
2009,01,19,09,42,3.90
2009,01,19,09,43,4.10
2009,01,19,09,44,4.30
2009,01,19,09,45,4.50
2009,01,19,09,46,4.60
2009,01,19,09,47,4.80
2009,01,19,09,48,4.90
2009,01,19,09,49,5.00
2009,01,19,09,50,5.10
2009,01,19,09,51,5.20
2009,01,19,09,52,5.20
2009,01,19,09,53,5.30
2009,01,19,09,54,5.30
2009,01,19,09,55,5.40
2009,01,19,09,56,5.40
2009,01,19,09,57,5.40
2009,01,19,09,58,5.50
2009,01,19,09,59,5.50
2009,01,19,10,00,5.60
2009,01,19,10,01,5.70
2009,01,19,10,02,5.80
2009,01,19,10,03,5.80
2009,01,19,10,04,5.90
2009,01,19,10,05,6.10
2009,01,19,10,06,6.20
2009,01,19,10,07,6.30
2009,01,19,10,08,6.40
2009,01,19,10,09,6.60
2009,01,19,10,10,6.70
2009,01,19,10,11,6.80
2009,01,19,10,12,6.90
2009,01,19,10,13,7.00
2009,01,19,10,14,7.10
2009,01,19,10,15,7.10
2009,01,19,10,16,7.10
2009,01,19,10,17,7.20
2009,01,19,10,18,7.20
2009,01,19,10,19,7.20
2009,01,19,10,20,7.20
2009,01,19,10,21,7.30
2009,01,19,10,22,7.40
2009,01,19,10,23,7.40
2009,01,19,10,24,7.50
2009,01,19,10,25,7.50
2009,01,19,10,26,7.70
2009,01,19,10,27,7.80
2009,01,19,10,28,7.80
2009,01,19,10,29,7.90
2009,01,19,10,30,8.00
2009,01,19,10,31,8.10
2009,01,19,10,32,8.10
2009,01,19,10,33,8.10
2009,01,19,10,34,8.10
2009,01,19,10,35,8.10
2009,01,19,10,36,8.10
2009,01,19,10,37,8.10
2009,01,19,10,38,8.10
2009,01,19,10,39,8.10
2009,01,19,10,40,8.10
2009,01,19,10,41,8.20
2009,01,19,10,42,8.20
2009,01,19,10,43,8.30
2009,01,19,10,44,8.30
2009,01,19,10,45,8.30
2009,01,19,10,46,8.30
2009,01,19,10,47,8.40
2009,01,19,10,48,8.40
2009,01,19,10,49,8.40
2009,01,19,10,50,8.40
2009,01,19,10,51,8.40
2009,01,19,10,52,8.40
2009,01,19,10,53,8.50
2009,01,19,10,54,8.50
2009,01,19,10,55,8.60
2009,01,19,10,56,8.60
2009,01,19,10,57,8.60
2009,01,19,10,58,8.70
2009,01,19,10,59,8.70
2009,01,19,11,00,8.70
2009,01,19,11,01,8.70
2009,01,19,11,02,8.60
2009,01,19,11,03,8.60
2009,01,19,11,04,8.60
2009,01,19,11,05,8.60
2009,01,19,11,06,8.60
2009,01,19,11,07,8.60
2009,01,19,11,08,8.60
2009,01,19,11,09,8.70
2009,01,19,11,10,8.80
2009,01,19,11,11,8.80
2009,01,19,11,12,8.90
2009,01,19,11,13,9.00
2009,01,19,11,14,9.00
2009,01,19,11,15,9.10
2009,01,19,11,16,9.20
2009,01,19,11,17,9.20
2009,01,19,11,18,9.20
2009,01,19,11,19,9.30
2009,01,19,11,20,9.30
2009,01,19,11,21,9.30
2009,01,19,11,22,9.30
2009,01,19,11,23,9.30
2009,01,19,11,24,9.20
2009,01,19,11,25,9.20
2009,01,19,11,26,9.20
2009,01,19,11,27,9.30
2009,01,19,11,28,9.30
2009,01,19,11,29,9.30
2009,01,19,11,30,9.30
2009,01,19,11,31,9.40
2009,01,19,11,32,9.50
2009,01,19,11,33,9.60
2009,01,19,11,34,9.60
2009,01,19,11,35,9.60
2009,01,19,11,36,9.60
2009,01,19,11,37,9.70
2009,01,19,11,38,9.80
2009,01,19,11,39,9.80
2009,01,19,11,40,9.80
2009,01,19,11,41,9.90
2009,01,19,11,42,10.00
2009,01,19,11,43,10.00
2009,01,19,11,44,10.10
2009,01,19,11,45,10.10
2009,01,19,11,46,10.20
2009,01,19,11,47,10.20
2009,01,19,11,48,10.20
2009,01,19,11,49,10.30
2009,01,19,11,50,10.40
2009,01,19,11,51,10.40
2009,01,19,11,52,10.40
2009,01,19,11,53,10.50
2009,01,19,11,54,10.50
2009,01,19,11,55,10.60
2009,01,19,11,56,10.60
2009,01,19,11,57,10.70
2009,01,19,11,58,10.70
2009,01,19,11,59,10.70
2009,01,19,12,00,10.70
2009,01,19,12,01,10.70
2009,01,19,12,02,10.70
2009,01,19,12,03,10.70
2009,01,19,12,04,10.70
2009,01,19,12,05,10.70
2009,01,19,12,06,10.80
2009,01,19,12,07,10.80
2009,01,19,12,08,10.80
2009,01,19,12,09,10.80
2009,01,19,12,10,10.80
2009,01,19,12,11,10.70
2009,01,19,12,12,10.70
2009,01,19,12,13,10.70
2009,01,19,12,14,10.60
2009,01,19,12,15,10.60
2009,01,19,12,16,10.60
2009,01,19,12,17,10.60
2009,01,19,12,18,10.60
2009,01,19,12,19,10.60
2009,01,19,12,20,10.60
2009,01,19,12,21,10.60
2009,01,19,12,22,10.60
2009,01,19,12,23,10.60
2009,01,19,12,24,10.60
2009,01,19,12,25,10.60
2009,01,19,12,26,10.50
2009,01,19,12,27,10.50
2009,01,19,12,28,10.50
2009,01,19,12,29,10.50
2009,01,19,12,30,10.50
2009,01,19,12,31,10.50
2009,01,19,12,32,10.50
2009,01,19,12,33,10.50
2009,01,19,12,34,10.50
2009,01,19,12,35,10.50
2009,01,19,12,36,10.50
2009,01,19,12,37,10.50
2009,01,19,12,38,10.50
2009,01,19,12,39,10.50
2009,01,19,12,40,10.40
2009,01,19,12,41,10.50
2009,01,19,12,42,10.50
2009,01,19,12,43,10.50
2009,01,19,12,44,10.50
2009,01,19,12,45,10.60
2009,01,19,12,46,10.60
2009,01,19,12,47,10.60
2009,01,19,12,48,10.60
2009,01,19,12,49,10.60
2009,01,19,12,50,10.60
2009,01,19,12,51,10.60
2009,01,19,12,52,10.70
2009,01,19,12,53,10.70
2009,01,19,12,54,10.70
2009,01,19,12,55,10.70
2009,01,19,12,56,10.70
2009,01,19,12,57,10.70
2009,01,19,12,58,10.70
2009,01,19,12,59,10.70
2009,01,19,13,00,10.70
2009,01,19,13,01,10.70
2009,01,19,13,02,10.60
2009,01,19,13,03,10.60
2009,01,19,13,04,10.60
2009,01,19,13,05,10.60
2009,01,19,13,06,10.60
2009,01,19,13,07,10.60
2009,01,19,13,08,10.60
2009,01,19,13,09,10.60
2009,01,19,13,10,10.60
2009,01,19,13,11,10.50
2009,01,19,13,12,10.50
2009,01,19,13,13,10.50
2009,01,19,13,14,10.50
2009,01,19,13,15,10.50
2009,01,19,13,16,10.40
2009,01,19,13,17,10.40
2009,01,19,13,18,10.40
2009,01,19,13,19,10.40
2009,01,19,13,20,10.40
2009,01,19,13,21,10.30
2009,01,19,13,22,10.30
2009,01,19,13,23,10.30
2009,01,19,13,24,10.30
2009,01,19,13,25,10.30
2009,01,19,13,26,10.30
2009,01,19,13,27,10.30
2009,01,19,13,28,10.30
2009,01,19,13,29,10.30
2009,01,19,13,30,10.30
2009,01,19,13,31,10.30
2009,01,19,13,32,10.30
2009,01,19,13,33,10.30
2009,01,19,13,34,10.20
2009,01,19,13,35,10.20
2009,01,19,13,36,10.10
2009,01,19,13,37,10.10
2009,01,19,13,38,10.00
2009,01,19,13,39,10.00
2009,01,19,13,40,9.90
2009,01,19,13,41,9.90
2009,01,19,13,42,9.80
2009,01,19,13,43,9.80
2009,01,19,13,44,9.80
2009,01,19,13,45,9.80
2009,01,19,13,46,9.70
2009,01,19,13,47,9.70
2009,01,19,13,48,9.70
2009,01,19,13,49,9.70
2009,01,19,13,50,9.70
2009,01,19,13,51,9.70
2009,01,19,13,52,9.70
2009,01,19,13,53,9.60
2009,01,19,13,54,9.60
2009,01,19,13,55,9.60
2009,01,19,13,56,9.60
2009,01,19,13,57,9.60
2009,01,19,13,58,9.60
2009,01,19,13,59,9.60
2009,01,19,14,00,9.60
2009,01,19,14,01,9.60
2009,01,19,14,02,9.60
2009,01,19,14,03,9.70
2009,01,19,14,04,9.70
2009,01,19,14,05,9.70
2009,01,19,14,06,9.70
2009,01,19,14,07,9.70
2009,01,19,14,08,9.70
2009,01,19,14,09,9.70
2009,01,19,14,10,9.70
2009,01,19,14,11,9.70
2009,01,19,14,12,9.60
2009,01,19,14,13,9.60
2009,01,19,14,14,9.70
2009,01,19,14,15,9.70
2009,01,19,14,16,9.70
2009,01,19,14,17,9.70
2009,01,19,14,18,9.70
2009,01,19,14,19,9.70
2009,01,19,14,20,9.70
2009,01,19,14,21,9.70
2009,01,19,14,22,9.70
2009,01,19,14,23,9.70
2009,01,19,14,24,9.70
2009,01,19,14,25,9.70
2009,01,19,14,26,9.70
2009,01,19,14,27,9.70
2009,01,19,14,28,9.70
2009,01,19,14,29,9.70
2009,01,19,14,30,9.70
2009,01,19,14,31,9.80
2009,01,19,14,32,9.80
2009,01,19,14,33,9.80
2009,01,19,14,34,9.80
2009,01,19,14,35,9.80
2009,01,19,14,36,9.80
2009,01,19,14,37,9.70
2009,01,19,14,38,9.70
2009,01,19,14,39,9.70
2009,01,19,14,40,9.70
2009,01,19,14,41,9.70
2009,01,19,14,42,9.70
2009,01,19,14,43,9.70
2009,01,19,14,44,9.70
2009,01,19,14,45,9.70
2009,01,19,14,46,9.70
2009,01,19,14,47,9.70
2009,01,19,14,48,9.70
2009,01,19,14,49,9.70
2009,01,19,14,50,9.70
2009,01,19,14,51,9.70
2009,01,19,14,52,9.70
2009,01,19,14,53,9.70
2009,01,19,14,54,9.70
2009,01,19,14,55,9.70
2009,01,19,14,56,9.60
2009,01,19,14,57,9.60
2009,01,19,14,58,9.60
2009,01,19,14,59,9.60
2009,01,19,15,00,9.60
2009,01,19,15,01,9.60
2009,01,19,15,02,9.60
2009,01,19,15,03,9.60
2009,01,19,15,04,9.50
2009,01,19,15,05,9.50
2009,01,19,15,06,9.40
2009,01,19,15,07,9.40
2009,01,19,15,08,9.40
2009,01,19,15,09,9.40
2009,01,19,15,10,9.40
2009,01,19,15,11,9.40
2009,01,19,15,12,9.30
2009,01,19,15,13,9.30
2009,01,19,15,14,9.20
2009,01,19,15,15,9.20
2009,01,19,15,16,9.10
2009,01,19,15,17,9.10
2009,01,19,15,18,9.10
2009,01,19,15,19,9.00
2009,01,19,15,20,9.00
2009,01,19,15,21,9.00
2009,01,19,15,22,9.00
2009,01,19,15,23,8.90
2009,01,19,15,24,8.90
2009,01,19,15,25,8.80
2009,01,19,15,26,8.80
2009,01,19,15,27,8.80
2009,01,19,15,28,8.80
2009,01,19,15,29,8.70
2009,01,19,15,30,8.70
2009,01,19,15,31,8.60
2009,01,19,15,32,8.60
2009,01,19,15,33,8.60
2009,01,19,15,34,8.60
2009,01,19,15,35,8.50
2009,01,19,15,36,8.40
2009,01,19,15,37,8.40
2009,01,19,15,38,8.30
2009,01,19,15,39,8.30
2009,01,19,15,40,8.30
2009,01,19,15,41,8.30
2009,01,19,15,42,8.20
2009,01,19,15,43,8.20
2009,01,19,15,44,8.20
2009,01,19,15,45,8.10
2009,01,19,15,46,8.10
2009,01,19,15,47,8.10
2009,01,19,15,48,8.00
2009,01,19,15,49,8.00
2009,01,19,15,50,7.90
2009,01,19,15,51,7.90
2009,01,19,15,52,7.80
2009,01,19,15,53,7.80
2009,01,19,15,54,7.80
2009,01,19,15,55,7.80
2009,01,19,15,56,7.70
2009,01,19,15,57,7.70
2009,01,19,15,58,7.60
2009,01,19,15,59,7.60
2009,01,19,16,00,7.60
2009,01,19,16,01,7.50
2009,01,19,16,02,7.50
2009,01,19,16,03,7.40
2009,01,19,16,04,7.40
2009,01,19,16,05,7.40
2009,01,19,16,06,7.30
2009,01,19,16,07,7.30
2009,01,19,16,08,7.20
2009,01,19,16,09,7.20
2009,01,19,16,10,7.20
2009,01,19,16,11,7.10
2009,01,19,16,12,7.10
2009,01,19,16,13,7.00
2009,01,19,16,14,7.00
2009,01,19,16,15,6.90
2009,01,19,16,16,6.90
2009,01,19,16,17,6.80
2009,01,19,16,18,6.80
2009,01,19,16,19,6.80
2009,01,19,16,20,6.70
2009,01,19,16,21,6.70
2009,01,19,16,22,6.60
2009,01,19,16,23,6.60
2009,01,19,16,24,6.50
2009,01,19,16,25,6.50
2009,01,19,16,26,6.40
2009,01,19,16,27,6.30
2009,01,19,16,28,6.30
2009,01,19,16,29,6.20
2009,01,19,16,30,6.20
2009,01,19,16,31,6.20
2009,01,19,16,32,6.10
2009,01,19,16,33,6.10
2009,01,19,16,34,6.00
2009,01,19,16,35,5.90
2009,01,19,16,36,5.90
2009,01,19,16,37,5.90
2009,01,19,16,38,5.80
2009,01,19,16,39,5.80
2009,01,19,16,40,5.70
2009,01,19,16,41,5.70
2009,01,19,16,42,5.70
2009,01,19,16,43,5.60
2009,01,19,16,44,5.60
2009,01,19,16,45,5.50
2009,01,19,16,46,5.50
2009,01,19,16,47,5.40
2009,01,19,16,48,5.40
2009,01,19,16,49,5.40
2009,01,19,16,50,5.30
2009,01,19,16,51,5.30
2009,01,19,16,52,5.20
2009,01,19,16,53,5.20
2009,01,19,16,54,5.20
2009,01,19,16,55,5.10
2009,01,19,16,56,5.10
2009,01,19,16,57,5.00
2009,01,19,16,58,5.00
2009,01,19,16,59,4.90
2009,01,19,17,00,4.90
2009,01,19,17,01,4.90
2009,01,19,17,02,4.80
2009,01,19,17,03,4.80
2009,01,19,17,04,4.80
2009,01,19,17,05,4.70
2009,01,19,17,06,4.70
2009,01,19,17,07,4.70
2009,01,19,17,08,4.60
2009,01,19,17,09,4.60
2009,01,19,17,10,4.50
2009,01,19,17,11,4.50
2009,01,19,17,12,4.40
2009,01,19,17,13,4.40
2009,01,19,17,14,4.30
2009,01,19,17,15,4.30
2009,01,19,17,16,4.30
2009,01,19,17,17,4.20
2009,01,19,17,18,4.20
2009,01,19,17,19,4.20
2009,01,19,17,20,4.10
2009,01,19,17,21,4.10
2009,01,19,17,22,4.10
2009,01,19,17,23,4.00
2009,01,19,17,24,4.00
2009,01,19,17,25,4.00
2009,01,19,17,26,3.90
2009,01,19,17,27,3.90
2009,01,19,17,28,3.80
2009,01,19,17,29,3.80
2009,01,19,17,30,3.80
2009,01,19,17,31,3.70
2009,01,19,17,32,3.70
2009,01,19,17,33,3.70
2009,01,19,17,34,3.60
2009,01,19,17,35,3.60
2009,01,19,17,36,3.60
2009,01,19,17,37,3.50
2009,01,19,17,38,3.50
2009,01,19,17,39,3.40
2009,01,19,17,40,3.40
2009,01,19,17,41,3.40
2009,01,19,17,42,3.30
2009,01,19,17,43,3.30
2009,01,19,17,44,3.30
2009,01,19,17,45,3.20
2009,01,19,17,46,3.20
2009,01,19,17,47,3.20
2009,01,19,17,48,3.10
2009,01,19,17,49,3.10
2009,01,19,17,50,3.00
2009,01,19,17,51,3.00
2009,01,19,17,52,2.90
2009,01,19,17,53,2.90
2009,01,19,17,54,2.90
2009,01,19,17,55,2.90
2009,01,19,17,56,2.80
2009,01,19,17,57,2.80
2009,01,19,17,58,2.80
2009,01,19,17,59,2.80
2009,01,19,18,00,2.70
2009,01,19,18,01,2.70